| time (UTC) | temp F | wind direction | speed knots | gust knots | rain 1hr in | rain 24hr in | rain mn in | humidity % | barometer mb |
| 20260505223322 | 82 | 360 | 0.9 | 9.6 | 0.00 | 0.01 | 0.01 | 29 | 1006.4 |
| 20260505221422 | 82 | 360 | 2.6 | 11.3 | 0.00 | 0.01 | 0.01 | 29 | 1006.2 |
| 20260505215523 | 82 | 360 | 4.3 | 13.9 | 0.00 | 0.01 | 0.01 | 29 | 1006.4 |
| 20260505213622 | 83 | 360 | 13.0 | 13.0 | 0.00 | 0.01 | 0.01 | 28 | 1006.0 |
| 20260505211722 | 83 | 360 | 7.8 | 13.9 | 0.00 | 0.01 | 0.01 | 29 | 1005.7 |
| 20260505205822 | 84 | 360 | 2.6 | 14.8 | 0.00 | 0.01 | 0.01 | 29 | 1005.7 |
| 20260505203922 | 84 | 360 | 2.6 | 8.7 | 0.00 | 0.01 | 0.01 | 28 | 1005.9 |
| 20260505202022 | 84 | 360 | 3.5 | 19.1 | 0.00 | 0.01 | 0.01 | 29 | 1006.1 |
| 20260505200122 | 84 | 360 | 7.0 | 12.2 | 0.00 | 0.01 | 0.01 | 28 | 1006.2 |
| 20260505194222 | 85 | 360 | 2.6 | 15.6 | 0.00 | 0.01 | 0.01 | 29 | 1006.5 |
| 20260505192322 | 84 | 360 | 2.6 | 13.0 | 0.00 | 0.01 | 0.01 | 30 | 1006.8 |
| 20260505190423 | 84 | 360 | 2.6 | 10.4 | 0.00 | 0.01 | 0.01 | 33 | 1006.9 |
| 20260505184522 | 84 | 360 | 2.6 | 14.8 | 0.00 | 0.01 | 0.01 | 33 | 1007.2 |
| 20260505182642 | 85 | 360 | 3.5 | 13.0 | 0.00 | 0.01 | 0.01 | 32 | 1007.2 |
| 20260505180723 | 84 | 360 | 5.2 | 13.0 | 0.00 | 0.01 | 0.01 | 35 | 1007.4 |
| 20260505174822 | 84 | 360 | 4.3 | 11.3 | 0.00 | 0.01 | 0.01 | 38 | 1007.7 |
| 20260505172922 | 83 | 360 | 2.6 | 12.2 | 0.00 | 0.01 | 0.01 | 37 | 1007.9 |
| 20260505171022 | 82 | 360 | 1.7 | 9.6 | 0.00 | 0.01 | 0.01 | 40 | 1008.0 |
| 20260505165142 | 80 | 360 | 5.2 | 8.7 | 0.00 | 0.01 | 0.01 | 41 | 1008.4 |
| 20260505163222 | 79 | 360 | 2.6 | 8.7 | 0.00 | 0.01 | 0.01 | 43 | 1008.7 |
| 20260505161322 | 79 | 360 | 2.6 | 8.7 | 0.00 | 0.01 | 0.01 | 42 | 1009.0 |
| 20260505151622 | 76 | 360 | 7.0 | 8.7 | 0.00 | 0.01 | 0.01 | 46 | 1009.6 |
| 20260505124422 | 63 | 360 | 0.0 | 2.6 | 0.00 | 0.01 | 0.01 | 74 | 1009.8 |
| 20260505122522 | 60 | 360 | 0.0 | 4.3 | 0.00 | 0.01 | 0.01 | 80 | 1010.1 |
| 20260505120642 | 57 | 360 | 2.6 | 4.3 | 0.00 | 0.01 | 0.01 | 82 | 1010.2 |
| 20260505114722 | 56 | 360 | 0.0 | 0.0 | 0.00 | 0.01 | 0.01 | 82 | 1010.0 |
| 20260505112822 | 55 | 360 | 0.0 | 0.9 | 0.00 | 0.01 | 0.01 | 82 | 1009.9 |
| 20260505110922 | 54 | 360 | 0.9 | 0.9 | 0.00 | 0.00 | 0.00 | 82 | 1010.1 |
| 20260505101222 | 50 | 360 | 0.0 | 0.0 | 0.00 | 0.00 | 0.00 | 82 | 1010.0 |
| 20260505095322 | 51 | 360 | 0.0 | 0.9 | 0.00 | 0.00 | 0.00 | 82 | 1009.8 |
| 20260505093442 | 51 | 360 | 0.0 | 0.0 | 0.00 | 0.00 | 0.00 | 82 | 1009.3 |
| 20260505091522 | 50 | 360 | 0.0 | 2.6 | 0.00 | 0.00 | 0.00 | 81 | 1009.2 |
| 20260505085622 | 50 | 360 | 0.0 | 0.9 | 0.00 | 0.00 | 0.00 | 81 | 1009.2 |
| 20260505083722 | 51 | 360 | 0.0 | 0.0 | 0.00 | 0.00 | 0.00 | 80 | 1009.2 |
| 20260505081822 | 51 | 360 | 0.0 | 0.0 | 0.00 | 0.00 | 0.00 | 80 | 1009.1 |
| 20260505075922 | 52 | 360 | 0.0 | 0.0 | 0.00 | 0.00 | 0.00 | 79 | 1009.3 |
| 20260505074042 | 52 | 360 | 0.0 | 0.0 | 0.00 | 0.00 | 0.00 | 78 | 1009.3 |
| 20260505072122 | 53 | 360 | 0.0 | 0.0 | 0.00 | 0.00 | 0.00 | 77 | 1009.3 |
| 20260505070222 | 53 | 360 | 0.0 | 0.0 | 0.00 | 0.00 | 0.00 | 75 | 1009.2 |
| 20260505064322 | 54 | 360 | 0.0 | 0.0 | 0.00 | 0.00 | 0.00 | 73 | 1009.1 |
| 20260505062502 | 55 | 360 | 0.0 | 0.0 | 0.00 | 0.00 | 0.00 | 72 | 1009.3 |
| 20260505060522 | 56 | 360 | 0.0 | 0.0 | 0.00 | 0.00 | 0.00 | 69 | 1009.5 |
| 20260505054622 | 57 | 360 | 0.0 | 0.0 | 0.00 | 0.00 | 0.00 | 66 | 1009.5 |
| 20260505052722 | 58 | 360 | 0.0 | 0.9 | 0.00 | 0.00 | 0.00 | 64 | 1009.6 |
| 20260505050821 | 60 | 360 | 0.0 | 0.9 | 0.00 | 0.00 | 0.00 | 61 | 1009.7 |
| 20260505041142 | 62 | 360 | 0.0 | 2.6 | 0.00 | 0.00 | 0.00 | 56 | 1009.7 |
| 20260505035625 | 62 | 360 | 0.0 | 5.2 | 0.00 | 0.00 | 0.00 | 54 | 1009.8 |
| 20260505033724 | 63 | 360 | 0.0 | 3.5 | 0.00 | 0.00 | 0.00 | 53 | 1009.8 |
| 20260505031844 | 64 | 360 | 2.6 | 5.2 | 0.00 | 0.00 | 0.00 | 52 | 1010.0 |
| 20260505025924 | 64 | 360 | 0.9 | 6.1 | 0.00 | 0.00 | 0.00 | 51 | 1010.0 |
| 20260505024025 | 64 | 360 | 0.0 | 6.1 | 0.00 | 0.00 | 0.00 | 51 | 1009.9 |
| 20260505022124 | 64 | 360 | 0.9 | 7.0 | 0.00 | 0.00 | 0.00 | 51 | 1010.1 |
| 20260505020224 | 65 | 360 | 1.7 | 7.0 | 0.00 | 0.00 | 0.00 | 50 | 1010.0 |
| 20260505014325 | 66 | 360 | 0.9 | 5.2 | 0.00 | 0.00 | 0.00 | 47 | 1009.9 |
| 20260505012424 | 67 | 360 | 0.9 | 3.5 | 0.00 | 0.00 | 0.00 | 40 | 1009.6 |
| 20260505010525 | 68 | 360 | 0.0 | 2.6 | 0.00 | 0.00 | 0.00 | 39 | 1009.3 |
| 20260505004624 | 68 | 360 | 2.6 | 4.3 | 0.00 | 0.00 | 0.00 | 38 | 1009.2 |
| 20260505002724 | 69 | 360 | 5.2 | 6.1 | 0.00 | 0.00 | 0.00 | 38 | 1008.8 |
| 20260505000824 | 69 | 360 | 0.9 | 5.2 | 0.00 | 0.00 | 0.00 | 37 | 1008.5 |
| 20260504234924 | 70 | 360 | 4.3 | 4.3 | 0.00 | 0.00 | 0.00 | 37 | 1008.1 |
| 20260504233024 | 71 | 360 | 0.0 | 0.9 | 0.00 | 0.00 | 0.00 | 36 | 1007.9 |
| 20260504231124 | 72 | 360 | 1.7 | 9.6 | 0.00 | 0.00 | 0.00 | 35 | 1007.7 |
| 20260504225225 | 72 | 360 | 1.7 | 8.7 | 0.00 | 0.00 | 0.00 | 33 | 1007.5 |